Regional Weather Roundup
Issued by NWS

Home | Current Version | Previous Version | Text Only | Print | Product List | Glossary Off
Versions: 1 2 3 4 5 6 7 8 9 10 11 12 13 14 15 16 17 18 19 20 21 22 23 24 25 26 27 28 29 30 31 32 33 34 35 36 37 38 39 40 41 42 43 44 45 46 47 48 49 50

000
ASUS45 KBOU 171607
RWRCO

WEATHER ROUNDUP FOR COLORADO
NATIONAL WEATHER SERVICE DENVER/BOULDER CO
900 AM MST WED DEC 17 2014

NOTE: "FAIR" INDICATES FEW OR NO CLOUDS BELOW 12000 FEET WITH NO
SIGNIFICANT WEATHER AND/OR OBSTRUCTIONS TO VISIBILITY.

COZ001>005-013-030-031-171700-
...NORTHWEST COLORADO...

CITY           SKY/WX    TMP DP  RH WIND       PRES   REMARKS
CRAIG          FOG       20  19  96 CALM      30.01S VSB 1/2
HAYDEN         PTSUNNY   25  21  86 E3        29.99S
MEEKER         LGT SNOW  29  27  92 CALM      29.99S FOG
MOUNT WERNER   NOT AVBL
STEAMBOAT SPGS CLOUDY    24  22  94 CALM      30.00S
WALDEN         PTSUNNY   19  18  93 SE5       29.98S WCI  13
$$

COZ006>008-011-171700-
...WEST CENTRAL VALLEYS...

CITY           SKY/WX    TMP DP  RH WIND       PRES   REMARKS
GRAND JUNCTION LGT SNOW  32  31  96 SE6       30.01S FOG     WCI  26
MONTROSE       CLOUDY    32  27  81 E3        30.03S
EAGLE          PTSUNNY   18  16  93 MISG      30.08S
RIFLE          CLOUDY    28  27  96 CALM      30.03R FOG
DELTA          LGT SNOW  34  33  96 CALM      30.02F
NUCLA          CLOUDY    32  30  93 CALM      30.03S
$$

COZ017>023-064>068-171700-
...SOUTHWEST COLORADO...

CITY           SKY/WX    TMP DP  RH WIND       PRES   REMARKS
DURANGO        CLOUDY    31  26  82 NE5       29.99R WCI  26
CORTEZ         CLOUDY    33  29  85 E3        29.99R
PAGOSA SPRINGS CLOUDY    30  24  77 CALM      30.00R
TELLURIDE      NOT AVBL
WOLF CREEK PAS LGT SNOW  18  14  86 MISG      30.01S VSB 1
$$

COZ009-010-012-014-032>034-037-058>063-171700-
...CENTRAL COLORADO...

CITY           SKY/WX    TMP DP  RH WIND       PRES   REMARKS
ASPEN          MOSUNNY   22  18  85 CALM      29.99R
BUENA VISTA    CLOUDY    24  15  69 NW3       30.01S
COPPER MTN       N/A     23  12  63 S8        30.00S WCI  14
BERTHOUD PASS  LGT SNOW  12   9  85 MISG      30.02R
COTTONWOOD PAS CLOUDY    30  18  59 CALM      30.00S
GUNNISON       PTSUNNY   14   9  79 CALM      30.08S
KREMMLING      PTSUNNY  N/A N/A N/A CALM      30.06S
LEADVILLE      CLOUDY    15  10  80 E6        29.99S WCI   6
MONARCH PASS   LGT SNOW  18  14  86 MISG      30.11S
SALIDA         CLOUDY    27  15  62 NW5       30.09S WCI  21
SUNLIGHT       CLOUDY    25  23  93 CALM      30.02R
WILKERSON PASS CLOUDY    23  12  63 W5        30.03S WCI  17
$$

COZ069>075-171700-
...SAN LUIS VALLEY/SANGRE DE CRISTO MOUNTAINS...

CITY           SKY/WX    TMP DP  RH WIND       PRES   REMARKS
ALAMOSA        CLOUDY    22  15  75 N5        30.01S WCI  16
LA VETA PASS   NOT AVBL
SAGUACHE       CLOUDY    28  16  59 NW15      30.02S WCI  17
$$

COZ035-036-038>040-171700-
...NORTHERN COLORADO FRONT RANGE...

CITY           SKY/WX    TMP DP  RH WIND       PRES   REMARKS
DENVER INTL AP CLOUDY    25  21  85 SE6       29.97S WCI  18
DMNS CITY PARK   N/A     28  22  78 W3        29.98R
AURORA         PTSUNNY   30  22  70 W1        29.97S
FRONT RANGE AP PTSUNNY   28  25  86 SE3       29.97
ERIE MUNI ARPT   N/A     24  22  92 MISG      29.98S
BOULDER MUN AP PTSUNNY   27  25  93 CALM      29.97S
CENTENNIAL     CLOUDY    32  22  66 SW3       29.96R
BROOMFIELD     CLOUDY    27  23  86 CALM      29.97S
FORT COLLINS   PTSUNNY   23  19  86 CALM      30.00R
LONGMONT       PTSUNNY   26  23  90 CALM      30.00S
$$

COZ041-046-047-076>085-087-088-171700-
...PIKES PEAK/PALMER DIVIDE AND SOUTHERN FOOTHILLS...

CITY           SKY/WX    TMP DP  RH WIND       PRES   REMARKS
COLO. SPRINGS  CLOUDY    39  19  44 N3        29.97S
A. F. ACADEMY  CLOUDY    31  22  69 N6        29.97R WCI  25
ELLICOTT       NOT AVBL
FALCON         CLOUDY    38  21  51 N3        29.97S
FORT CARSON    PTSUNNY   27  20  75 S6        29.97R WCI  21
LIMON          CLOUDY    23  20  88 CALM      29.98R
MONUMENT HILL  CLOUDY    30  21  69 CALM      29.95S
TRINIDAD       CLOUDY    34  24  67 SW8       29.94F WCI  27
$$

COZ042>045-048>051-090-091-171700-
...NORTHEAST COLORADO...

CITY           SKY/WX    TMP DP  RH WIND       PRES   REMARKS
GREELEY ARPT   CLOUDY    19  12  73 N3        29.99F
AKRON          FOG       18  17  96 SE10      29.99F VSB 1/4 WCI   6
BURLINGTON     FOG       23  21  92 E6        30.04S VSB 1/4 WCI  16
WRAY           CLOUDY    24  24 100 SE8       30.09S FOG     WCI  15
STERLING       CLOUDY    23  21  93 S3        30.04S FOG
HOLYOKE        NOT AVBL
FORT MORGAN    CLOUDY    13  11  91 NE6       30.01F WCI   4
$$

COZ086-089-092>099-171700-
...SOUTHEAST COLORADO...

CITY           SKY/WX    TMP DP  RH WIND       PRES   REMARKS
PUEBLO         CLOUDY    23  18  81 N3        30.00S
LA JUNTA       CLOUDY    26  21  81 N5        30.03R WCI  20
LAMAR          CLOUDY    27  24  89 NE5       30.04R WCI  22
SPRINGFIELD      N/A     29  25  85 N5        30.00R WCI  24
$$


USA.gov is the U.S. government's official web portal to all federal, state and local government web resources and services.